| time (UTC) | temp F | wind direction | speed knots | gust knots | rain 1hr in | rain 24hr in | rain mn in | humidity % | barometer mb |
| 20260502163008 | 74 | 125 | 1.7 | 3.5 | 0.00 | 0.00 | 0.00 | 27 | 1023.3 |
| 20260502162003 | 74 | 129 | 1.7 | 3.5 | 0.00 | 0.00 | 0.00 | 29 | 1023.1 |
| 20260502161003 | 74 | 128 | 1.7 | 3.5 | 0.00 | 0.00 | 0.00 | 28 | 1023.3 |
| 20260502152003 | 75 | 191 | 1.7 | 5.2 | 0.00 | 0.00 | 0.00 | 26 | 1023.9 |
| 20260502151003 | 74 | 203 | 1.7 | 2.6 | 0.00 | 0.00 | 0.00 | 26 | 1024.0 |
| 20260502123003 | 73 | 251 | 1.7 | 3.5 | 0.00 | 0.00 | 0.00 | 27 | 1026.3 |
| 20260502122003 | 71 | 93 | 1.7 | 3.5 | 0.00 | 0.00 | 0.00 | 29 | 1026.5 |
| 20260502121003 | 74 | 66 | 0.9 | 5.2 | 0.00 | 0.00 | 0.00 | 27 | 1026.5 |
| 20260502115003 | 71 | 92 | 1.7 | 6.1 | 0.00 | 0.00 | 0.00 | 28 | 1026.8 |
| 20260502113003 | 72 | 24 | 1.7 | 3.5 | 0.00 | 0.00 | 0.00 | 30 | 1027.3 |
| 20260502112003 | 70 | 62 | 2.6 | 6.1 | 0.00 | 0.00 | 0.00 | 30 | 1027.7 |
| 20260502111007 | 71 | 85 | 1.7 | 6.1 | 0.00 | 0.00 | 0.00 | 30 | 1027.3 |
| 20260502110003 | 69 | 115 | 1.7 | 6.1 | 0.00 | 0.00 | 0.00 | 32 | 1027.8 |
| 20260502105003 | 70 | 89 | 2.6 | 7.8 | 0.00 | 0.00 | 0.00 | 31 | 1027.6 |
| 20260502104003 | 69 | 112 | 3.5 | 7.0 | 0.00 | 0.00 | 0.00 | 31 | 1027.8 |
| 20260502103003 | 70 | 53 | 1.7 | 5.2 | 0.00 | 0.00 | 0.00 | 32 | 1027.8 |
| 20260502102003 | 69 | 155 | 2.6 | 7.0 | 0.00 | 0.00 | 0.00 | 35 | 1028.1 |
| 20260502101003 | 69 | 139 | 1.7 | 7.8 | 0.00 | 0.00 | 0.00 | 36 | 1028.3 |
| 20260502091003 | 67 | 12 | 0.9 | 5.2 | 0.00 | 0.00 | 0.00 | 35 | 1029.0 |
| 20260502071003 | 60 | 9 | 0.9 | 2.6 | 0.00 | 0.00 | 0.00 | 55 | 1030.4 |
| 20260502070003 | 60 | 7 | 0.0 | 1.7 | 0.00 | 0.00 | 0.00 | 55 | 1030.6 |
| 20260502065003 | 58 | 7 | 0.0 | 1.7 | 0.00 | 0.00 | 0.00 | 57 | 1030.9 |
| 20260502064003 | 58 | 8 | 0.0 | 0.9 | 0.00 | 0.00 | 0.00 | 58 | 1030.7 |
| 20260502063003 | 57 | 332 | 0.0 | 1.7 | 0.00 | 0.00 | 0.00 | 62 | 1030.8 |
| 20260502062003 | 57 | 192 | 0.0 | 0.9 | 0.00 | 0.00 | 0.00 | 63 | 1031.0 |
| 20260502061003 | 57 | 0 | 0.0 | 0.0 | 0.00 | 0.00 | 0.00 | 64 | 1031.0 |
| 20260502014003 | 41 | 0 | 0.0 | 0.0 | 0.00 | 0.00 | 0.00 | 83 | 1032.4 |
| 20260502013003 | 42 | 0 | 0.0 | 0.0 | 0.00 | 0.00 | 0.00 | 82 | 1032.3 |
| 20260502012003 | 43 | 0 | 0.0 | 0.0 | 0.00 | 0.00 | 0.00 | 81 | 1032.3 |
| 20260502010003 | 43 | 242 | 0.0 | 1.7 | 0.00 | 0.00 | 0.00 | 82 | 1032.3 |
| 20260502005003 | 42 | 0 | 0.0 | 0.0 | 0.00 | 0.00 | 0.00 | 83 | 1032.6 |
| 20260502004003 | 42 | 0 | 0.0 | 0.0 | 0.00 | 0.00 | 0.00 | 83 | 1032.3 |
| 20260502003003 | 43 | 243 | 0.0 | 1.7 | 0.00 | 0.00 | 0.00 | 82 | 1032.2 |
| 20260502002003 | 44 | 264 | 0.9 | 3.5 | 0.00 | 0.00 | 0.00 | 80 | 1032.4 |
| 20260502001003 | 44 | 271 | 0.0 | 0.9 | 0.00 | 0.00 | 0.00 | 81 | 1032.6 |
| 20260502000003 | 43 | 0 | 0.0 | 0.0 | 0.00 | 0.00 | 0.00 | 82 | 1032.5 |
| 20260501235003 | 44 | 270 | 0.0 | 2.6 | 0.00 | 0.00 | 0.00 | 81 | 1032.4 |
| 20260501234003 | 44 | 269 | 0.0 | 2.6 | 0.00 | 0.00 | 0.00 | 81 | 1032.5 |
| 20260501233003 | 44 | 0 | 0.0 | 0.0 | 0.00 | 0.00 | 0.00 | 81 | 1032.5 |
| 20260501232003 | 44 | 0 | 0.0 | 0.0 | 0.00 | 0.00 | 0.00 | 81 | 1032.4 |
| 20260501231003 | 44 | 0 | 0.0 | 0.0 | 0.00 | 0.00 | 0.00 | 81 | 1032.5 |
| 20260501230003 | 44 | 0 | 0.0 | 0.0 | 0.00 | 0.00 | 0.00 | 80 | 1032.6 |
| 20260501225003 | 45 | 0 | 0.0 | 0.0 | 0.00 | 0.00 | 0.00 | 78 | 1032.6 |
| 20260501224003 | 46 | 232 | 0.0 | 0.9 | 0.00 | 0.00 | 0.00 | 78 | 1032.4 |
| 20260501223003 | 46 | 0 | 0.0 | 0.0 | 0.00 | 0.00 | 0.00 | 78 | 1032.4 |
| 20260501222003 | 47 | 0 | 0.0 | 0.0 | 0.00 | 0.00 | 0.00 | 76 | 1032.1 |
| 20260501221003 | 46 | 0 | 0.0 | 0.0 | 0.00 | 0.00 | 0.00 | 77 | 1032.3 |
| 20260501220020 | 47 | 0 | 0.0 | 0.0 | 0.00 | 0.00 | 0.00 | 75 | 1032.2 |
| 20260501215003 | 47 | 0 | 0.0 | 0.0 | 0.00 | 0.00 | 0.00 | 75 | 1032.5 |
| 20260501214003 | 47 | 0 | 0.0 | 0.0 | 0.00 | 0.00 | 0.00 | 75 | 1032.3 |
| 20260501213003 | 48 | 236 | 0.0 | 0.9 | 0.00 | 0.00 | 0.00 | 74 | 1032.3 |
| 20260501212003 | 50 | 236 | 0.0 | 1.7 | 0.00 | 0.00 | 0.00 | 70 | 1031.9 |
| 20260501211003 | 50 | 236 | 0.0 | 1.7 | 0.00 | 0.00 | 0.00 | 71 | 1032.1 |
| 20260501210003 | 49 | 0 | 0.0 | 0.0 | 0.00 | 0.00 | 0.00 | 72 | 1032.3 |
| 20260501205003 | 51 | 223 | 0.0 | 0.9 | 0.00 | 0.00 | 0.00 | 69 | 1031.9 |
| 20260501204003 | 51 | 0 | 0.0 | 0.0 | 0.00 | 0.00 | 0.00 | 70 | 1032.1 |
| 20260501203003 | 51 | 224 | 0.9 | 2.6 | 0.00 | 0.00 | 0.00 | 68 | 1031.7 |
| 20260501202003 | 52 | 209 | 0.0 | 1.7 | 0.00 | 0.00 | 0.00 | 68 | 1031.9 |
| 20260501201003 | 53 | 0 | 0.0 | 0.0 | 0.00 | 0.00 | 0.00 | 65 | 1031.8 |
| 20260501200003 | 53 | 215 | 0.0 | 0.9 | 0.00 | 0.00 | 0.00 | 64 | 1031.6 |
| 20260501195003 | 53 | 222 | 0.9 | 3.5 | 0.00 | 0.00 | 0.00 | 64 | 1031.5 |
| 20260501194003 | 54 | 223 | 2.6 | 2.6 | 0.00 | 0.00 | 0.00 | 63 | 1031.3 |
| 20260501193003 | 54 | 226 | 0.0 | 2.6 | 0.00 | 0.00 | 0.00 | 62 | 1031.4 |
| 20260501192003 | 55 | 0 | 0.0 | 0.0 | 0.00 | 0.00 | 0.00 | 61 | 1031.3 |
| 20260501191003 | 57 | 229 | 0.9 | 2.6 | 0.00 | 0.00 | 0.00 | 59 | 1031.0 |
| 20260501190003 | 58 | 221 | 2.6 | 3.5 | 0.00 | 0.00 | 0.00 | 56 | 1031.1 |
| 20260501185003 | 58 | 224 | 2.6 | 3.5 | 0.00 | 0.00 | 0.00 | 56 | 1030.9 |
| 20260501184003 | 60 | 223 | 1.7 | 2.6 | 0.00 | 0.00 | 0.00 | 52 | 1031.0 |
| 20260501183003 | 61 | 218 | 0.9 | 1.7 | 0.00 | 0.00 | 0.00 | 51 | 1030.4 |
| 20260501182003 | 62 | 0 | 0.0 | 0.0 | 0.00 | 0.00 | 0.00 | 49 | 1030.2 |
| 20260501181003 | 63 | 0 | 0.0 | 0.0 | 0.00 | 0.00 | 0.00 | 48 | 1030.2 |
| 20260501180004 | 66 | 0 | 0.0 | 0.0 | 0.00 | 0.00 | 0.00 | 45 | 1029.7 |
| 20260501175003 | 68 | 293 | 0.9 | 1.7 | 0.00 | 0.00 | 0.00 | 40 | 1029.7 |
| 20260501174011 | 69 | 306 | 0.0 | 1.7 | 0.00 | 0.00 | 0.00 | 39 | 1029.6 |
| 20260501173003 | 69 | 312 | 0.9 | 2.6 | 0.00 | 0.00 | 0.00 | 37 | 1029.6 |
| 20260501172003 | 69 | 291 | 1.7 | 2.6 | 0.00 | 0.00 | 0.00 | 37 | 1029.5 |
| 20260501171011 | 69 | 260 | 1.7 | 2.6 | 0.00 | 0.00 | 0.00 | 37 | 1029.3 |
| 20260501170003 | 69 | 293 | 2.6 | 3.5 | 0.00 | 0.00 | 0.00 | 37 | 1029.5 |
| 20260501165003 | 69 | 325 | 2.6 | 5.2 | 0.00 | 0.00 | 0.00 | 37 | 1029.3 |
| 20260501164003 | 69 | 301 | 3.5 | 6.1 | 0.00 | 0.00 | 0.00 | 36 | 1029.8 |